Weather past 2 weeks in Saipan, Northern Mariana Islands

Now
84 °F

Light rain. Mostly cloudy.


Feels Like: 95 °F
Forecast: 78 / 84 °F
Wind: 7 mph from East

Location: Saipan International Airport

Current Time: Jul 23, 2014 at 1:55:50 PM

Latest Report: Jul 23, 2014 at 12:54 PM


Visibility: 10 mi

Pressure: 29.85 "Hg

Humidity: 83%

Dew point: 78 °F

Location of SaipanLocation

Historic Weather in Saipan — Graph

°F

Saipan temperature yesterday

Maximum temperature yesterday: 88 °F (at 10:54 AM)
Minimum temperature yesterday: 80 °F (at 11:54 AM)
Average temperature yesterday: 84 °F

Past Weeks' High & Low Weather Summary

 TemperatureHumidityPressure
High90 °F (Jul 8, 12:54 PM)100% (Jul 12, 4:02 AM)29.96 "Hg (Jul 12, 4:02 AM)
Low75 °F (Jul 12, 4:02 AM)67% (Jul 10, 10:54 AM)29.76 "Hg (Jul 17, 3:59 PM)
Average83 °F82%29.88 "Hg
* Reported Jul 8 11:54 AM — Jul 23 11:54 AM, Saipan, Weather by CustomWeather, © 2014

Note: Actual official high and low records may vary slightly from our data, if they occured in-between our weather recording intervals... More about our weather records

Advertising

Saipan weather history for previous 24 hours

 ConditionsComfort  
Time TempWeatherWind HumidityBarometerVisibility
11:54 AM
Jul 23
87 °FScattered clouds.9 mph75%29.87 "Hg10 mi
10:54 AM87 °FSunny.10 mph75%29.88 "Hg10 mi
9:54 AM87 °FPassing clouds.10 mph75%29.90 "Hg10 mi
2:54 AM82 °FPassing clouds.9 mph85%29.85 "Hg10 mi
1:54 AM82 °FPassing clouds.8 mph88%29.86 "Hg10 mi
12:54 AM82 °FClear.9 mph85%29.88 "Hg10 mi
11:54 PM
Jul 22
82 °FPassing clouds.14 mph85%29.90 "Hg10 mi
10:54 PM82 °FPassing clouds.9 mph88%29.91 "Hg10 mi
9:54 PM82 °FPassing clouds.8 mph85%29.90 "Hg10 mi
8:54 PM83 °FClear.12 mph82%29.90 "Hg10 mi
7:54 PM83 °FClear.9 mph82%29.90 "Hg10 mi
6:54 PM84 °FClear.13 mph80%29.88 "Hg10 mi
5:54 PM86 °FSunny.13 mph75%29.88 "Hg10 mi
4:54 PM86 °FPassing clouds.14 mph75%29.86 "Hg10 mi
3:54 PM87 °FPassing clouds.15 mph72%29.87 "Hg10 mi
2:54 PM88 °FPassing clouds.15 mph70%29.88 "Hg10 mi
1:54 PM88 °FScattered clouds.14 mph73%29.89 "Hg10 mi
Weather by CustomWeather, © 2014

See weather overviewHow to use our weather pages